Regional Weather Roundup
Issued by NWS Charleston, WV

Home | Current Version | Previous Version | Text Only | Print | Product List | Glossary Off
Versions: 1 2 3 4 5 6 7 8 9 10 11 12 13 14 15 16 17 18 19 20 21 22 23 24 25 26 27 28 29 30 31 32 33 34 35 36 37 38 39 40 41 42 43 44 45 46 47 48 49 50

000
ASUS41 KRLX 290210
RWRRLX
West Virginia Regional Weather Roundup
National Weather Service Charleston WV
1000 PM EDT FRI APR 28 2017

Note: "fair" indicates few or no clouds below 12,000 feet with no
significant weather and/or obstructions to visibility.

WVZ003-290300-
Northern Panhandle of West Virginia

CITY           SKY/WX    TMP DP  RH WIND       PRES   REMARKS
WHEELING       CLOUDY    63  47  55 N10       30.02R
$$

WVZ009-290300-
Northwest West Virginia

CITY           SKY/WX    TMP DP  RH WIND       PRES   REMARKS
PARKERSBURG    CLOUDY    70  53  54 E3        29.96R
$$

WVZ006-290300-
Western West Virginia

CITY           SKY/WX    TMP DP  RH WIND       PRES   REMARKS
HUNTINGTON     CLOUDY    76  56  49 S7        29.93R
$$

WVZ015-290300-
West Central West Virginia

CITY           SKY/WX    TMP DP  RH WIND       PRES   REMARKS
CHARLESTON     CLOUDY    73  54  51 SW9       29.97R
$$

WVZ022-031-290300-
North Central West Virginia

CITY           SKY/WX    TMP DP  RH WIND       PRES   REMARKS
CLARKSBURG     CLOUDY    67  52  58 NE3       29.97S
MORGANTOWN     CLOUDY    65  55  70 CALM      29.98F
$$

WVZ025-035-042-045-290300-
Southern West Virginia

CITY           SKY/WX    TMP DP  RH WIND       PRES   REMARKS
BECKLEY        CLOUDY    72  57  59 S12       30.06R
LOGAN          NOT AVBL
BLUEFIELD      CLEAR     70  57  63 S9G17     30.09R
LEWISBURG      CLEAR     70  58  64 S7        30.06S
$$

WVZ047-290300-
Northern Mountains of West Virginia

CITY           SKY/WX    TMP DP  RH WIND       PRES   REMARKS
ELKINS         CLOUDY    63  54  72 S8        30.00F
$$

WVZ052-290300-
Eastern Panhandle of West Virginia

CITY           SKY/WX    TMP DP  RH WIND       PRES   REMARKS
MARTINSBURG    CLOUDY    72  59  63 SE5       29.99S
PETERSBURG     MOCLDY    72  57  58 SE5       29.99S
$$



USA.gov is the U.S. government's official web portal to all federal, state and local government web resources and services.